Temperature
14 14 14 15 15 16 16 17 17 17 17 17 17 17 17 16 16 16 16 16 16 17 17 17 17 17 17 17 16 16 16 16 16 16 16 16 16 16
13 14 14 14 14 15 16 16 16 17 17 17 17 17 16 16 16 16 16 16 16 16 17 17 17 17 17 17 16 16 16 16 16 16 16 16 16 15
12 13 13 13 14 14 15 15 16 16 16 16 16 16 16 16 15 15 15 15 16 16 16 17 17 17 17 16 16 16 16 16 16 16 16 16 15 15
12 12 12 13 13 14 14 15 15 16 16 16 16 15 15 15 15 15 14 14 15 15 16 16 16 16 16 16 16 16 16 16 16 16 15 15 15 15
11 12 12 12 12 13 13 14 14 15 15 15 16 15 15 15 14 14 14 14 14 14 15 15 16 16 16 16 16 16 16 16 16 15 15 15 15 15
11 11 11 12 12 12 12 13 13 14 14 15 15 15 15 14 14 14 13 13 13 13 13 13 14 15 15 15 15 15 15 15 15 15 15 15 14 14
10 11 11 11 11 12 12 12 13 13 13 14 14 15 15 14 14 14 13 12 12 12 12 12 13 13 14 14 14 15 15 15 14 14 14 14 13 13
9 10 10 11 11 11 11 12 12 12 12 13 14 14 15 15 14 14 13 12 11 11 12 12 12 12 12 13 13 13 13 13 13 13 13 13 13 13
9 9 10 10 11 11 11 11 11 11 11 12 13 14 14 14 14 13 13 13 12 12 12 12 12 12 12 12 12 12 12 12 12 12 12 12 12 12
8 9 9 10 10 11 11 11 11 11 11 11 12 13 14 14 14 14 13 12 12 11 11 11 11 11 12 12 11 11 12 12 12 12 12 12 12 12
8 8 9 9 10 10 10 10 10 10 10 11 11 12 13 13 14 13 12 12 11 11 11 11 11 11 11 11 11 11 11 11 11 11 12 12 12 12
7 8 8 9 9 10 10 10 10 10 10 10 11 11 11 12 13 13 13 13 12 11 11 11 11 11 10 10 10 10 10 10 11 11 11 12 12 12
7 8 8 9 9 10 10 10 10 10 10 10 10 11 11 11 12 13 12 13 13 12 12 11 11 11 11 9 9 9 10 10 10 11 11 11 12 12
7 8 8 9 9 9 10 10 10 10 10 10 10 10 11 11 12 12 12 12 12 13 13 12 12 12 12 11 9 9 9 9 10 10 10 10 10 10
7 8 8 9 9 9 10 10 10 10 10 10 10 10 11 11 11 12 12 11 11 11 11 12 12 12 12 12 12 10 9 9 9 10 10 9 9 9
7 7 8 8 9 9 9 10 10 10 10 10 10 10 10 11 11 11 11 11 11 11 11 11 11 11 11 11 12 11 11 10 10 9 9 9 8 8
7 7 8 8 9 9 9 10 10 10 10 10 10 10 10 10 10 11 11 11 11 11 10 10 10 10 10 10 10 10 10 10 10 9 8 8 8 8
7 7 8 9 9 9 9 9 10 10 10 10 10 10 10 10 10 10 11 11 11 11 11 10 9 9 8 9 9 10 10 9 9 8 8 8 8 8
7 8 8 9 9 10 10 10 10 10 10 10 10 10 10 10 10 10 10 10 11 11 10 10 9 9 8 8 8 9 10 9 9 8 8 8 8 8
7 7 8 9 9 10 10 10 10 10 10 10 10 10 10 10 10 10 10 10 10 10 10 9 9 9 9 9 9 9 9 9 9 9 8 8 9 9
7 7 8 8 9 9 10 10 10 10 10 10 10 10 10 10 10 10 10 10 10 10 10 9 10 10 10 10 10 10 9 9 9 9 9 9 9 10
8 8 8 8 9 9 9 9 10 10 10 10 10 10 10 10 10 10 10 9 9 10 10 10 10 10 10 10 10 10 10 10 9 9 9 9 10 10
8 8 8 9 9 9 9 9 9 10 10 9 10 10 10 9 10 9 9 9 9 9 9 9 10 10 11 11 11 10 10 10 10 10 10 10 10 11
Wind_Speed
5 6 6 6 6 5 4 3 3 4 4 4 3 6 6 8 11 9 10 8 7 8 10 12 13 13 14 15 16 18 19 20 22 23 23 24 24 25
6 6 6 6 6 6 5 4 2 4 4 3 4 6 7 8 9 10 11 10 5 4 5 7 9 11 12 13 14 15 16 17 18 19 19 19 18 17
8 7 7 7 6 7 6 5 3 2 3 3 3 7 8 9 8 9 10 8 7 6 5 5 5 6 7 8 9 10 11 11 12 13 13 12 12 11
10 9 8 7 8 7 6 6 5 4 3 4 4 7 7 10 9 8 6 9 8 9 10 10 10 9 8 7 7 8 8 9 9 9 9 9 9 8
12 11 10 9 9 8 8 7 5 5 4 3 4 6 6 9 10 9 9 7 7 9 11 13 13 13 13 12 12 12 12 12 12 13 13 13 14 14
12 12 11 11 10 9 8 8 7 6 5 5 5 6 7 10 10 9 7 6 5 5 8 11 15 16 15 15 14 15 15 16 17 18 19 20 21 20
13 12 13 13 14 11 9 8 8 7 6 7 6 6 6 10 9 7 8 7 4 4 5 5 7 8 10 13 14 16 18 20 22 23 24 24 24 23
12 13 14 12 14 15 13 10 10 10 9 8 8 7 9 9 9 10 10 8 4 3 4 4 5 7 6 9 14 18 20 22 23 24 24 25 24 23
12 11 15 16 15 12 12 11 9 7 7 7 8 7 7 8 10 12 11 10 5 6 5 5 7 8 7 11 15 18 20 21 22 23 24 24 24 23
12 11 12 13 12 12 13 12 10 9 8 5 5 4 3 3 6 9 11 9 9 5 4 5 6 7 8 10 13 17 19 21 22 23 23 24 24 23
12 11 12 13 14 14 13 12 11 10 11 10 7 5 3 1 3 8 12 13 9 4 3 4 7 7 7 6 10 14 17 20 21 22 23 25 25 23
9 9 12 13 14 15 13 12 11 10 10 11 8 7 5 5 6 9 12 14 10 5 4 5 9 6 5 4 5 9 11 14 18 20 23 22 18 14
7 7 8 12 13 15 13 10 11 10 10 11 10 8 7 6 6 8 10 12 12 6 10 7 9 6 6 6 4 5 8 8 10 11 15 12 6 8
6 6 6 12 13 13 9 9 11 9 7 8 8 8 7 7 7 9 10 8 6 8 13 10 8 8 9 8 6 7 7 8 9 7 9 8 5 10
2 1 4 10 11 10 9 10 9 6 6 7 8 8 8 8 7 7 7 7 7 9 14 7 7 9 9 7 9 9 7 6 7 4 5 5 5 10
2 3 6 9 8 7 8 7 6 6 6 6 7 7 7 8 8 8 8 10 8 6 6 8 9 11 7 9 11 11 9 9 8 7 6 4 9 13
5 4 4 5 6 6 7 8 7 6 6 5 6 6 7 8 8 10 11 10 7 8 6 4 6 7 7 9 11 11 9 7 8 8 6 6 6 8
3 5 6 7 8 8 8 8 9 8 7 6 6 7 8 9 9 10 11 11 11 10 9 9 9 7 5 2 8 11 9 8 8 8 7 7 8 8
2 5 5 6 6 6 6 7 8 8 7 6 7 7 8 10 11 12 12 11 12 12 12 12 12 12 12 10 9 13 11 9 10 9 8 6 7 8
5 6 6 5 5 5 5 5 5 6 7 6 6 8 9 10 12 13 13 13 13 13 12 12 13 13 12 10 7 9 15 11 10 10 9 6 4 8
8 8 7 6 6 5 4 4 5 6 7 6 6 8 9 11 12 13 13 16 14 14 16 15 14 15 8 8 9 8 8 13 16 10 10 7 5 5
6 7 7 6 5 4 4 5 5 5 6 6 7 8 9 11 12 14 14 15 14 14 14 13 13 13 9 10 10 9 7 6 10 18 15 8 6 7
7 6 6 6 6 5 5 6 7 6 6 6 7 8 10 11 11 12 14 14 14 13 13 13 12 10 8 10 10 9 9 8 6 6 5 8 11 10
Wind_Direction
259 258 259 264 271 270 269 258 221 219 217 196 159 145 130 121 147 144 133 142 162 188 201 209 213 217 220 222 222 223 224 225 225 225 225 225 226 228
240 240 240 247 258 267 268 273 258 209 211 205 177 157 149 142 142 122 118 121 111 144 178 197 206 211 216 221 224 224 224 223 224 223 223 223 223 224
238 233 229 229 238 249 255 250 257 255 214 198 167 154 139 131 131 128 140 126 96 87 107 131 157 176 189 200 208 209 208 208 208 208 209 211 213 215
237 230 228 222 221 233 243 243 236 225 217 202 161 157 151 142 141 137 123 105 96 84 92 98 106 114 123 135 147 155 162 165 167 167 168 171 174 173
237 229 222 215 214 216 223 230 234 230 215 208 185 169 162 150 136 120 107 106 102 99 90 89 96 100 103 106 112 118 123 127 129 129 127 125 123 118
244 235 226 216 211 208 214 217 216 221 215 212 201 177 167 155 142 135 129 124 115 102 89 93 94 90 93 98 104 111 116 118 118 117 116 115 112 108
255 243 234 221 209 204 208 209 207 210 211 209 205 190 171 163 162 154 143 128 109 126 120 116 105 93 86 88 97 107 112 114 113 113 112 110 108 107
267 254 245 233 217 202 203 200 201 208 209 206 205 197 188 178 169 156 149 148 143 155 134 119 110 99 87 85 104 110 112 112 112 112 111 109 108 107
260 253 245 235 215 202 195 188 193 202 207 203 205 199 187 183 174 161 163 161 140 154 131 100 90 84 80 91 107 113 115 116 116 115 114 112 111 109
252 246 241 245 229 203 196 198 201 200 196 191 191 171 138 136 169 169 156 130 113 115 115 108 104 96 90 88 103 115 118 120 120 119 117 114 111 108
249 239 233 234 235 207 195 193 196 199 200 193 179 161 144 151 165 153 148 143 140 136 118 115 123 107 94 93 100 113 122 126 127 126 125 121 115 106
245 237 232 230 225 201 194 191 194 196 185 185 186 187 199 214 200 173 161 156 147 146 162 130 146 132 111 109 121 124 120 126 133 136 137 134 126 117
239 232 222 209 209 199 193 188 193 188 184 179 183 187 192 202 190 178 174 165 159 151 162 148 159 145 129 140 146 148 144 147 141 146 156 161 156 141
239 233 206 183 187 190 188 175 172 175 176 177 180 185 189 195 190 179 179 171 156 149 161 157 159 161 143 144 148 156 157 162 160 165 184 200 204 162
218 221 169 172 177 184 183 165 167 181 179 182 188 189 189 188 175 162 149 131 113 130 151 149 146 151 151 150 152 158 162 174 176 174 174 180 165 147
135 126 150 164 185 181 167 176 197 202 192 193 191 186 179 179 168 150 144 131 115 99 94 121 142 147 147 145 153 161 163 169 178 180 175 179 176 169
155 159 166 173 188 192 186 188 199 208 211 202 190 181 177 176 163 153 148 143 139 147 138 112 111 122 130 147 158 165 166 167 173 177 176 182 186 180
156 187 195 194 197 199 199 198 200 205 204 199 189 180 178 172 162 156 159 158 153 155 156 154 145 134 131 167 180 168 171 171 172 177 183 185 189 190
228 227 221 217 221 218 208 201 199 199 195 192 185 181 176 169 166 165 165 162 158 160 163 164 166 166 172 180 192 188 175 172 172 180 195 197 186 184
231 237 236 235 235 236 226 211 200 188 185 187 185 178 174 170 169 170 169 166 163 162 164 171 178 181 181 175 166 181 186 172 172 179 194 206 180 173
218 226 233 239 237 229 220 214 204 189 180 182 183 177 174 171 172 172 171 168 165 167 171 179 186 187 183 158 155 165 180 182 174 173 187 193 173 158
232 226 227 232 229 220 209 205 202 189 176 177 180 178 175 173 174 174 173 173 174 173 173 175 180 190 194 171 165 159 149 146 160 173 182 201 191 183
234 234 229 227 219 207 209 208 204 192 180 177 177 178 177 176 175 175 175 174 173 171 169 173 181 188 188 170 160 156 153 153 155 155 148 136 120 120
Height
1460 1460 1461 1463 1466 1468 1470 1472 1475 1476 1478 1480 1482 1485 1487 1489 1491 1493 1495 1497 1499 1501 1503 1505 1508 1510 1513 1515 1518 1521 1524 1526 1529 1532 1535 1538 1540 1543
1455 1455 1455 1457 1459 1462 1464 1467 1469 1472 1474 1476 1479 1481 1484 1485 1488 1489 1491 1493 1495 1496 1498 1501 1503 1506 1508 1511 1514 1516 1519 1521 1524 1527 1530 1532 1535 1537
1449 1449 1450 1451 1453 1455 1458 1461 1464 1467 1469 1472 1475 1478 1480 1482 1484 1487 1489 1489 1491 1492 1494 1496 1499 1502 1504 1507 1509 1512 1514 1517 1519 1522 1525 1527 1529 1531
1443 1444 1444 1445 1446 1448 1451 1454 1457 1461 1465 1468 1471 1474 1477 1479 1482 1484 1485 1486 1487 1489 1490 1492 1495 1498 1501 1503 1506 1508 1511 1513 1516 1518 1520 1522 1524 1526
1436 1437 1438 1439 1439 1441 1444 1447 1450 1454 1458 1463 1467 1470 1473 1477 1479 1481 1482 1484 1485 1486 1487 1489 1491 1494 1497 1500 1503 1505 1508 1510 1513 1515 1517 1519 1520 1522
1428 1430 1431 1432 1433 1435 1436 1439 1443 1447 1452 1457 1461 1465 1469 1473 1475 1477 1480 1482 1483 1484 1485 1487 1489 1492 1495 1498 1500 1503 1505 1508 1510 1513 1515 1516 1518 1520
1419 1421 1423 1425 1427 1429 1430 1433 1436 1439 1444 1450 1454 1460 1464 1467 1470 1473 1476 1479 1481 1483 1485 1487 1489 1491 1493 1496 1498 1501 1504 1506 1508 1511 1513 1514 1516 1518
1409 1412 1415 1418 1420 1422 1424 1427 1430 1433 1437 1442 1447 1452 1456 1461 1466 1469 1472 1475 1479 1482 1484 1487 1489 1491 1493 1496 1498 1501 1503 1505 1508 1510 1512 1514 1516 1518
1400 1403 1408 1411 1413 1416 1418 1421 1423 1426 1431 1435 1441 1445 1452 1456 1461 1464 1468 1472 1475 1479 1483 1486 1488 1491 1494 1496 1499 1502 1504 1506 1508 1510 1512 1514 1516 1518
1391 1395 1399 1403 1406 1409 1412 1414 1417 1420 1424 1429 1435 1440 1446 1451 1455 1460 1464 1469 1474 1478 1481 1484 1487 1490 1493 1496 1499 1502 1504 1507 1509 1511 1513 1514 1516 1518
1383 1387 1391 1395 1399 1403 1406 1409 1411 1415 1419 1424 1430 1435 1440 1445 1450 1455 1459 1464 1469 1474 1478 1481 1485 1489 1493 1496 1499 1502 1505 1507 1509 1511 1513 1515 1516 1518
1376 1380 1385 1389 1393 1397 1401 1404 1407 1410 1414 1418 1424 1429 1435 1440 1445 1449 1453 1459 1463 1470 1474 1478 1481 1486 1491 1495 1498 1501 1504 1506 1509 1511 1513 1515 1516 1517
1371 1375 1380 1384 1388 1393 1397 1401 1404 1407 1411 1414 1419 1424 1430 1435 1440 1445 1450 1455 1459 1464 1468 1473 1478 1483 1486 1491 1496 1500 1503 1505 1508 1510 1512 1514 1515 1517
1367 1371 1376 1381 1385 1390 1394 1398 1402 1405 1408 1411 1415 1419 1424 1430 1436 1441 1447 1452 1457 1461 1465 1469 1473 1478 1482 1487 1491 1496 1501 1504 1507 1509 1511 1513 1514 1516
1366 1369 1373 1378 1383 1389 1393 1397 1401 1404 1407 1409 1412 1416 1421 1426 1432 1437 1443 1449 1454 1458 1463 1467 1471 1475 1479 1483 1486 1491 1496 1501 1505 1508 1510 1512 1513 1515
1365 1368 1372 1377 1383 1387 1391 1395 1398 1402 1405 1407 1410 1413 1417 1422 1426 1432 1438 1444 1449 1454 1460 1465 1469 1473 1477 1481 1485 1488 1493 1497 1501 1505 1508 1511 1513 1515
1365 1369 1373 1377 1382 1385 1389 1392 1395 1398 1402 1405 1407 1410 1413 1418 1422 1428 1433 1439 1444 1449 1455 1461 1466 1471 1476 1480 1483 1487 1490 1495 1499 1502 1506 1509 1512 1514
1367 1370 1373 1377 1380 1384 1386 1389 1392 1395 1398 1401 1404 1406 1409 1413 1418 1423 1428 1434 1440 1445 1451 1456 1461 1468 1474 1480 1483 1485 1488 1492 1496 1501 1504 1507 1510 1513
1367 1369 1372 1376 1379 1382 1384 1386 1389 1392 1395 1397 1400 1402 1406 1410 1414 1419 1424 1430 1435 1441 1447 1452 1457 1462 1467 1473 1478 1483 1486 1489 1494 1498 1502 1506 1509 1511
1365 1368 1371 1373 1376 1378 1381 1383 1386 1388 1391 1393 1396 1399 1402 1405 1410 1415 1420 1425 1431 1436 1442 1447 1452 1457 1462 1468 1473 1478 1484 1487 1491 1495 1499 1504 1508 1511
1364 1366 1368 1370 1373 1375 1377 1380 1382 1384 1387 1389 1392 1395 1398 1402 1406 1411 1416 1422 1427 1432 1437 1443 1449 1457 1464 1470 1474 1478 1482 1487 1490 1493 1498 1502 1505 1507
1361 1363 1365 1367 1369 1371 1373 1376 1378 1381 1383 1386 1388 1391 1394 1398 1402 1407 1412 1417 1423 1428 1435 1441 1449 1456 1463 1468 1471 1476 1480 1485 1490 1494 1497 1500 1503 1504
1358 1359 1361 1363 1365 1367 1369 1372 1375 1377 1380 1382 1385 1387 1391 1394 1399 1404 1409 1414 1420 1427 1433 1440 1448 1454 1460 1466 1470 1474 1479 1483 1488 1492 1496 1499 1501 1503